Regional Weather Roundup
Issued by NWS Grand Forks, ND

Home | Current Version | Previous Version | Graphics & Text | Print | Product List | Glossary On
Versions: 1 2 3 4 5 6 7 8 9 10 11 12 13 14 15 16 17 18 19 20 21 22 23 24 25 26 27 28 29 30 31 32 33 34 35 36 37 38 39 40 41 42 43 44 45 46 47 48 49 50
000
ASUS43 KFGF 061510
RWRFGF
PRAIRIE TO PINES  WEATHER ROUNDUP
NATIONAL WEATHER SERVICE EASTERN NORTH DAKOTA/GRAND FORKS ND
900 AM CST SAT FEB 06 2016

 **SATELLITE DATA USED TO AUGMENT SKY COVER AT AUTOMATED STATIONS**
 *****  WEATHER ACROSS EASTERN NORTH DAKOTA  *****

CITY           SKY/WX    TMP DP  RH WIND       PRES   REMARKS
GRAND FORKS    CLOUDY    25  20  81 S12       29.81F WCI  14
GRAND FRKS AFB CLOUDY    24  21  85 S8        29.79F WCI  16
GRAND FRKS NWS   N/A     23 N/A N/A S7          N/A  WCI  15
DEVILS LAKE    CLOUDY    31  25  78 SW13      29.73F WCI  21
FARGO          PTSUNNY   27  21  78 S12       29.86F WCI  17
WAHPETON ARPT  MOSUNNY   27  23  86 S6        29.91F WCI  20
$$

 ***** WEATHER ACROSS CENTRAL AND WESTERN NORTH DAKOTA  *****

CITY           SKY/WX    TMP DP  RH WIND       PRES   REMARKS
BISMARCK       CLOUDY    39  27  62 W5        29.82F
MINOT          CLOUDY    43  26  51 SW18      29.69F
JAMESTOWN      CLOUDY    34  24  67 SW15      29.79F WCI  24
MINOT AFB      CLOUDY    40  30  67 W13G23    29.67F
GARRISON         N/A     37  27  67 W14       29.74F
WILLISTON      CLOUDY    40  28  62 S8        29.73F
DICKINSON      CLOUDY    37  21  52 SW15      29.80F
HETTINGER      CLOUDY    36  20  52 W10       29.89F
$$

 *****  OTHER AIRPORT OBSERVATIONS IN OUR AREA  *****

CITY           SKY/WX    TMP DP  RH WIND       PRES   REMARKS
WALHALLA       FAIR      25  25 100 SE8       29.74F WCI  16
GRAFTON AIRPOR FAIR      23  23 100 S12       29.79F WCI  12
VALLEY CITY AR CLOUDY    30  28  93 SW10      29.83F WCI  21
CANDO          NOT AVBL
CAVALIER APRT  FAIR      23  19  86 S9        29.76F WCI  13
GWINNER        PTSUNNY   30  27  86 SW18G24   29.87F WCI  18
ROLLA          PTSUNNY   27  25  93 SW8       29.68F WCI  18
 ***** THE ABOVE OBSERVATIONS ARE NON NWS ARE NOT QUALITY
       CONTROLLED AND MAY MIS-REPORT RAIN FOR SNOW...
$$

  *****  WEATHER ACROSS NORTHERN MINNESOTA  *****

CITY           SKY/WX    TMP DP  RH WIND       PRES   REMARKS
FLAG ISLAND    CLOUDY    19  16  86 SE6       29.85F WCI  11
WARROAD        CLOUDY    19  16  86 E6        29.84F WCI  11
ROSEAU         CLOUDY    21  18  86 SE10      29.82F WCI  10
HALLOCK        CLOUDY    21  19  93 SE14      29.79F WCI   8
THF RVR FALLS  CLOUDY    25  19  80 S14       29.83F WCI  13
BAUDETTE       CLOUDY    20  15  81 SE8       29.86F WCI  10
WASKISH        CLOUDY    21  19  93 SE5       29.87F WCI  15
CROOKSTON      CLOUDY    25  21  86 S16       29.84F WCI  12
GREENBUSH NDAW   N/A     25  21  86 S8          N/A  WCI  16
$$
  *****  WEATHER ACROSS CENTRAL AND WEST MINNESOTA  *****

CITY           SKY/WX    TMP DP  RH WIND       PRES   REMARKS
FOSSTON        CLOUDY    25  21  86 S15       29.84F WCI  12
BEMIDJI        CLOUDY    21  19  91 SE6       29.87F WCI  13
PARK RAPIDS    CLOUDY    23  20  88 S8        29.89F WCI  14
ELBOW LAKE     PTSUNNY   23  22  98 S13       29.94F WCI  11
WADENA         CLOUDY    25  21  86 S8        29.91F WCI  16
DETROIT LAKES  MOSUNNY   27  25  93 S9        29.88F WCI  17
MOORHEAD       CLOUDY    25  21  86 S13       29.88F WCI  13
FERGUS FALLS   CLOUDY    25  23  93 S10       29.96S WCI  15
MORRIS MN      CLOUDY    23  21  93 S9        29.95F WCI  13
STAPLES        CLOUDY    23  21  93 S10       29.93F WCI  12
$$
  *****  WEATHER ELSEWHERE ACROSS MINNESOTA  *****

CITY           SKY/WX    TMP DP  RH WIND       PRES   REMARKS
DULUTH         CLOUDY    20  17  88 SW9       29.98F WCI   9
INTRNTL FALLS  CLOUDY    19  16  88 SE6       29.91F FOG     WCI  11
ELY            CLOUDY    16  16 100 CALM      29.95S
CLOQUET        CLOUDY    21  19  93 S8        29.99F WCI  12
WHEATON        CLOUDY    32  27  80 S10       29.95F WCI  24
BRAINERD       CLOUDY    23  21  92 S12       29.96F FOG     WCI  12
HIBBING        CLOUDY    18  17  96 S3        29.95F
ALEXANDRIA     FLURRIES  25  21  85 S14       29.95F WCI  13
SAINT CLOUD    CLOUDY    23  20  88 S10       30.01F WCI  12
MINNEAPOLIS    CLOUDY    26  23  88 S9        30.10F WCI  17
$$

  *****  WEATHER ACROSS SOUTH DAKOTA  *****

CITY           SKY/WX    TMP DP  RH WIND       PRES   REMARKS
SIOUX FALLS    CLOUDY    22  19  89 S9        30.08F WCI  12
BROOKINGS      CLOUDY    23  21  92 S10       30.01F WCI  12
WATERTOWN      CLOUDY    26  21  81 S14       29.96F WCI  14
HURON          CLOUDY    25  20  81 S10       30.01F WCI  15
SISSETON         N/A     33  24  69 SW16G25   29.90F WCI  23
ABERDEEN       CLOUDY    28  23  81 S13       29.93F WCI  17
MITCHELL       MOSUNNY   27  21  78 S12       30.05F WCI  17
PIERRE         CLOUDY    31  20  63 W18       29.97F WCI  19
MOBRIDGE       CLOUDY    31  24  75 SE7       29.88F WCI  24
RAPID CITY     CLOUDY    33  23  66 CALM      30.00S
$$

  *****  SOME WEATHER IN NEARBY STATES *****

CITY           SKY/WX    TMP DP  RH WIND       PRES   REMARKS
GLASGOW MT     CLOUDY    39  27  62 SW10      29.74F
GREAT FALLS MT MOCLDY    34  31  88 SW28G43   29.91R WCI  21
CHEYENNE WY    CLOUDY    32  16  51 W26G41    30.12F WCI  18
SCOTTSBLUFF NE CLOUDY    27  17  66 CALM      30.16S
OMAHA NE       FOG       22  22 100 SE8       30.24F VSB 1/2 WCI  12
DES MOINES IA  CLOUDY    30  27  88 W9        30.24S FOG     WCI  22
DAVENPORT IA   SUNNY     31  22  69 SW9       30.25F WCI  23
CHICAGO IL     MOSUNNY   29  23  78 SW9       30.26S WCI  20
EAU CLAIRE WI  CLOUDY    26  20  77 SW8       30.11F WCI  18
LA CROSSE WI   CLOUDY    29  22  75 SW12      30.17F WCI  19
$$

  *****  SOME NATIONAL WEATHER *****

CITY           SKY/WX    TMP DP  RH WIND       PRES   REMARKS
LA GUARDIA NY  CLOUDY    37  17  44 W9        30.44R
RALEIGH NC     CLOUDY    37  22  54 E5        30.46S
ATLANTA GA     PTSUNNY   41  21  44 E8        30.38S
NEW ORLEANS LA MOSUNNY   51  31  46 E9        30.34R
OKLAHOMA CITY  MOSUNNY   35  29  78 NW14      30.37R
ALBUQUERQUE NM CLOUDY    24  12  60 W6        30.50R WCI  17
SALT LAKE CITY PTCLDY    23  18  81 SE13      30.50F WCI  11
LOS ANGELES CA PTCLDY    56  24  29 VRB5      30.26R
BOISE ID       CLOUDY    34  27  75 SE14      30.41S WCI  25
SEATTLE WA     MOCLDY    43  39  86 S18       30.40R
$$

*** WEATHER ACROSS MANITOBA...SASKATCHEWAN AND ONTARIO ***
                ***ONTARIO***

CITY           SKY/WX    TMP DP  RH WIND       PRES   REMARKS
GERALDTON      FLURRIES   1  -4  78 N10       29.99R WCI -14
THUNDER BAY    CLOUDY    19  14  79 VRB2      30.02S
SIOUX LOOKOUT  FLURRIES   9   5  85 E5        29.93F WCI   0
TORONTO        CLOUDY    34  23  64 W20       30.20S WCI  22
BIG TROUT LK   CLEAR    -31 -36  75 CALM      30.11S
PICKLE LAKE    MOSUNNY  -13 -20  70 E5        30.00R WCI -25
DRYDEN         CLOUDY    12  10  92 E5        29.90F WCI   4
KENORA         LGT SNOW  16  14  93 SE8       29.85F WCI   5
$$
                *** MANITOBA***

CITY           SKY/WX    TMP DP  RH WIND       PRES   REMARKS
BRANDON        CLOUDY    23  19  86 SE7       29.64F WCI  15
DAUPHIN        CLOUDY    21  19  93 E9        29.60F WCI  11
ISLAND LAKE    PTCLDY   -18 -24  76 SE10      29.99F WCI -39
PILOT MOUND      N/A     25  21  86 S10         N/A  WCI  15
THE PAS        FLURRIES  10   7  85 SE9       29.63F WCI  -2
THOMPSON       CRYSTALS -15 -22  70 E5        29.92F WCI -27
WINNIPEG       MOCLDY    21  18  86 SE12      29.78F WCI   9
LYNN LAKE      LGT SNOW  -9 -15  77 SE14G22   29.69F WCI -31
CHURCHILL      CLEAR    -40 -47  67 SW5       30.17R WCI -57
GILLAM         PTCLDY   -31 -38  68 SE3       30.09
$$
                ***SASKATCHEWAN***

CITY           SKY/WX    TMP DP  RH WIND       PRES   REMARKS
ESTEVAN        MOCLDY    36  28  75 SW10      29.64F
KINDERSLEY     MOCLDY    37  30  75 SW29G37   29.46R
LLOYDMINSTER   MOCLDY    39  27  60 W21       29.37S
PRINCE ALBERT  MOCLDY    18  16  93 E6        29.38F WCI   9
REGINA         MOCLDY    36  28  75 SW12      29.54F
YORKTON        CLOUDY    25  23  93 S10       29.52F WCI  15
N. BATTLEFORD  CLOUDY    36  27  69 SW10      29.39F
LA RONGE       FRZ RAIN  14  10  85 E8        29.42F WCI   3
SASKATOON      CLOUDY    32  28  86 SW10      29.42F WCI  24
SWIFT CURRENT  CLOUDY    45  27  49 W33G46    29.54R
$$
NOTE: THESE ARE AUTOMATED STATIONS WITH LIMITED QUALITY CONTROL
      "FAIR" INDICATES FEW OR NO CLOUDS BELOW 12,000 FEET WITH NO
      SIGNIFICANT WEATHER AND/OR OBSTRUCTIONS TO VISIBILITY.
      SKY/WX - SKY CONDITION AND SIGNIFICANT WEATHER.
      TMP - AIR TEMPERATURE.    DP   - DEWPOINT TEMPERATURE.
      RH  - RELATIVE HUMIDITY.  PRES - PRESSURE.
      HX  - HEAT INDEX.         WCI  - WIND CHILL INDEX.
$



USA.gov is the U.S. government's official web portal to all federal, state and local government web resources and services.